Showing default

GAOFEN 2, 40118

Orbit data source: Space-Track

GAOFEN 2, 40118 is a payload satellite owned by GGKGJ (CN) in SSO that was launched on Tue, 19 Aug 2014 UTC via a CHANG ZHENG 4B launch vehicle from the Taiyaun Space Center, China (TSC). Payloads include a variety of satellites, spacecraft, and rockets equipped with specific instruments for various scientific and technological missions. These include communications satellites like Starlink; space stations such as the ISS; scientific satellites like the Hubble; Earth observation satellites from companies like Planet Labs, Umbra, and HawkEye 360; GPS; miniature CubeSats for education and research; and military/defense satellites.

Loading next visibility...
GAOFEN 2 details
Identifier
40118, 2014-049A
Orbit
SSO
Last TLE update8 hours ago
Origin
Flag of CNGGKGJ (CN / PRC)
ManufacturerDFH
MissionOperational Civil Imaging
Bus & MotorLS-3000A, AOCS
Mass2,100 kg wet, 2,100 kg dry
Launch date (UTC)
2014-08-19 (10 years ago)
Launch vehicle
CHANG ZHENG 4B
Launch site
Taiyaun Space Center, China (TSC)
Object type
Payload
Rocket body
Debris
Shape & HBRBox + 2 Pan, 4 m
Radar Cross Section4.991 m², Large (>1 m²)

Expand to show TLE details & history

TLE from 8 hours ago
0 GAOFEN 2
1 40118U 14049A   24361.15046084  .00002925  00000-0  38821-3 0  9999
2 40118  98.0870  52.7783 0007099 144.5716 215.5968 14.80581385559630
Epoch: 2024-12-26T03:36Z
Definitive object data (Epoch: 2024-12-26T03:36:39.816Z)
Latitude-0.00008°
Longitude-96.52157°
Altitude634.552 km
Speed7.539 km/s
True Right ascension03h 31m 06s
True Declination0° 00' 00"
Sunlit
Object was in full shadow at TLE epoch
Visualization TLE readout
Latitude-0.08721°
Longitude-96.16878°
Altitude634.506 km
Speed7.539 km/s
Apparent Right ascension01h 45m 21s
Apparent Declination-22° 11' 52"
Sunlit
Object is in full shadow
Visualization observer readout
Local Sidereal Time11:04:37
Azimuth285.361° WNW
Elevation-51.717°
Doppler factor1
Orbital elements
Apogee altitude629.509 km
Perigee altitude619.567 km
Semi-major axis7,002.675 km
Eccentricity0.0007099
Inclination98.087°
RAAN52.7783°
Arg. of periapsis144.5716°
True anomaly215.54948°
Mean anomaly215.5968°
Eccentric anomaly215.57314°
Mean motion3.7038 °/min
BSTAR0.00038821
Orbital period97.2 mins
Loading maneuver chart data...
Loading historical data...
Loading historical data...
Loading historical data...
Loading historical data...
Loading historical data...
Loading historical data...
Loading historical data...
Other satellites on launch #49 in the year 2014 (2014-08-19 UTC)

GAOFEN 2 Visibility forecast

Observer location: undefined°, undefined

Span
Click to sort rows by Start time (UTC) header in descending order
Start Az.
Max El. time (UTC)
Max El. Az.
Max El.
End time (UTC)
End Az.
5 mins2024-12-26 15:33:13.824Z51.15° ENE2024-12-26 15:36:13.824Z96.646° ESE17.291°2024-12-26 15:38:13.824Z128.439° SE
6 mins2024-12-26 17:10:13.824Z341.008° N2024-12-26 17:12:13.824Z294.983° NW30.819°2024-12-26 17:16:13.824Z222.899° SW
7 mins2024-12-27 04:04:13.824Z191.985° SSW2024-12-27 04:07:13.824Z267.209° W36.756°2024-12-27 04:11:13.824Z335.395° NNW
|